Berlin, NH

8:22 PM EDT on July 25, 2017 (GMT -0400)
Berlin Municipal

Weather History for KBML - September, 2013

Change the Weather History Date:

Monday, September 30, 2013

  Actual Average Record
Temperature  
Mean Temperature 56 °F -  
Max Temperature 73 °F 60 °F 75 °F (2010)
Min Temperature 39 °F 32 °F 23 °F (2000)
Degree Days  
Heating Degree Days 10    
Growing Degree Days 6 (Base 50)    
Moisture  
Dew Point 43 °F    
Average Humidity 88    
Maximum Humidity 100    
Minimum Humidity 34    
Precipitation  
Precipitation 0.00 in - - ()
Sea Level Pressure  
Sea Level Pressure 30.09 in    
Wind  
Wind Speed 0 mph (West)    
Max Wind Speed 5 mph    
Max Gust Speed -    
Visibility 4 miles    
Events Fog    
Averages and records for this station are not official NWS values.
T = Trace of Precipitation, MM = Missing Value Source: NWS Daily Summary

Daily Weather History Graph

Daily Weather History Graph

Search for Another Location

Airport or City:

Trip Planner

Search our weather history database for the weather conditions in past years. The results will help you decide how hot, cold, wet, or windy it might be!

Date:

Astronomy

Sep. 30, 2013 Rise Set
Actual Time 6:41 AM EDT 6:26 PM EDT
Civil Twilight 6:12 AM EDT 6:55 PM EDT
Nautical Twilight 5:38 AM EDT 7:29 PM EDT
Astronomical Twilight 5:04 AM EDT 8:03 PM EDT
Moon 2:06 AM EDT (9/30) 4:03 PM EDT (9/30)
Length of Visible Light 12h 43m
Length of Day
11h 45m
Waning Crescent, 19% of the Moon is Illuminated
Sep 30
Waning Crescent
Oct 4
New
Oct 11
First Quarter
Oct 18
Full
Oct 26
Last Quarter

Hourly Weather History & Observations

Time (EDT) Temp. Dew Point Humidity Pressure Visibility Wind Dir Wind Speed Gust Speed Precip Events Conditions
12:08 AM 41.0 °F 39.2 °F 93% 30.13 in 0.5 mi Calm Calm - N/A Fog Fog
12:23 AM 39.2 °F 39.2 °F 100% 30.12 in 0.2 mi Calm Calm - N/A Fog Fog
12:39 AM 39.2 °F 39.2 °F 100% 30.12 in 0.5 mi Calm Calm - N/A Fog Fog
12:52 AM 39.0 °F 39.0 °F 100% 30.14 in 0.2 mi Calm Calm - N/A Fog Fog
1:37 AM 39.2 °F 39.2 °F 100% 30.13 in 0.5 mi Calm Calm - N/A Fog Fog
1:45 AM 39.2 °F 39.2 °F 100% 30.13 in 0.2 mi Calm Calm - N/A Fog Fog
1:52 AM 39.0 °F 39.0 °F 100% 30.14 in 0.2 mi Calm Calm - N/A Fog Fog
2:52 AM 39.9 °F 39.9 °F 100% 30.12 in 0.2 mi Calm Calm - N/A Fog Fog
3:19 AM 39.2 °F 39.2 °F 100% 30.11 in 0.2 mi Calm Calm - N/A Fog Fog
3:52 AM 41.0 °F 39.9 °F 96% 30.12 in 0.2 mi Calm Calm - N/A Fog Fog
4:23 AM 39.2 °F 39.2 °F 100% 30.11 in 0.2 mi Calm Calm - N/A Fog Fog
4:52 AM 39.9 °F 39.9 °F 100% 30.12 in 0.2 mi Calm Calm - N/A Fog Fog
5:33 AM 39.2 °F 39.2 °F 100% 30.11 in 0.2 mi Calm Calm - N/A Fog Fog
5:52 AM 39.9 °F 39.9 °F 100% 30.13 in 0.2 mi Calm Calm - N/A Fog Fog
6:52 AM 41.0 °F 41.0 °F 100% 30.15 in 0.2 mi Calm Calm - N/A Fog Fog
7:52 AM 42.1 °F 42.1 °F 100% 30.15 in 0.2 mi Calm Calm - N/A Fog Fog
8:36 AM 42.8 °F 42.8 °F 100% 30.12 in 0.5 mi Calm Calm - N/A Fog Fog
8:44 AM 44.6 °F 42.8 °F 93% 30.12 in 0.2 mi Calm Calm - N/A Fog Fog
8:52 AM 44.1 °F 44.1 °F 100% 30.14 in 0.2 mi Calm Calm - N/A Fog Fog
9:13 AM 44.6 °F 44.6 °F 100% 30.12 in 0.5 mi Calm Calm - N/A Fog Fog
9:31 AM 46.4 °F 44.6 °F 93% 30.11 in 0.2 mi Calm Calm - N/A Fog Fog
9:40 AM 46.4 °F 46.4 °F 100% 30.11 in 0.5 mi Calm Calm - N/A Fog Fog
9:52 AM 48.0 °F 46.9 °F 96% 30.13 in 0.8 mi Calm Calm - N/A   Mist
10:31 AM 50.0 °F 48.2 °F 94% 30.10 in 1.5 mi Calm Calm - N/A   Overcast
10:36 AM 51.8 °F 48.2 °F 88% 30.10 in 3.0 mi Calm Calm - N/A   Overcast
10:52 AM 53.1 °F 48.9 °F 86% 30.11 in 4.0 mi Calm Calm - N/A   Scattered Clouds
11:52 AM 63.0 °F 51.1 °F 65% 30.08 in 10.0 mi WNW 3.5 mph - N/A   Clear
12:52 PM 69.1 °F 48.9 °F 49% 30.06 in 10.0 mi Calm Calm - N/A   Clear
1:52 PM 71.1 °F 48.0 °F 44% 30.04 in 10.0 mi WNW 4.6 mph - N/A   Clear
2:52 PM 72.0 °F 46.9 °F 41% 30.02 in 10.0 mi Variable 3.5 mph - N/A   Clear
3:52 PM 72.0 °F 45.0 °F 38% 30.00 in 10.0 mi WSW 4.6 mph - N/A   Clear
4:52 PM 72.0 °F 42.1 °F 34% 30.00 in 10.0 mi Calm Calm - N/A   Clear
5:52 PM 66.0 °F 52.0 °F 60% 30.00 in 10.0 mi Calm Calm - N/A   Clear
6:52 PM 54.0 °F 50.0 °F 86% 30.01 in 10.0 mi Calm Calm - N/A   Clear
7:52 PM 48.9 °F 48.0 °F 97% 30.02 in 10.0 mi Calm Calm - N/A   Clear
8:52 PM 46.0 °F 44.1 °F 93% 30.04 in 10.0 mi Calm Calm - N/A   Clear
9:52 PM 44.1 °F 43.0 °F 96% 30.03 in 9.0 mi Calm Calm - N/A   Clear
10:52 PM 42.1 °F 39.9 °F 92% 30.04 in 10.0 mi Calm Calm - N/A   Clear
11:52 PM 39.0 °F 37.9 °F 96% 30.03 in 10.0 mi Calm Calm - N/A   Clear
11:59 PM 39.2 °F 39.2 °F 100% 30.01 in 2.5 mi Calm Calm - N/A   Partly Cloudy